Temperature
23 23 23 22 22 22 21 21 21 20 20 20 20 19 19 19 19 19 18 18 18 18 18 18 18 18 18 18 18 18 18 18 18 18 18 18 18 18 18 18 18 18 18
23 23 22 22 22 22 21 21 21 20 20 20 20 19 19 19 19 19 18 18 18 18 18 18 18 18 18 18 18 18 18 18 18 18 17 17 17 17 17 17 18 17 17
23 22 22 22 22 22 21 21 21 20 20 20 20 19 19 19 19 19 18 18 18 18 18 18 18 18 18 18 17 18 18 17 17 17 17 17 17 17 17 17 17 17 17
23 23 23 22 22 22 22 21 21 20 20 20 20 19 19 19 19 18 18 18 18 18 18 18 18 18 18 18 18 17 17 18 17 17 17 17 17 17 17 17 17 17 17
23 23 23 23 22 22 22 21 21 20 20 20 19 19 19 19 18 18 18 18 18 18 18 18 17 17 17 17 17 17 17 17 17 17 17 17 17 17 17 17 17 17 17
23 23 23 22 22 22 21 21 21 20 20 20 19 19 19 19 18 18 18 18 18 18 18 17 17 17 17 17 17 17 17 17 17 17 17 17 17 17 17 17 17 17 17
23 22 22 22 22 22 22 21 21 20 20 19 19 19 19 18 18 18 18 18 18 18 17 17 17 17 17 17 17 17 17 17 17 17 17 17 17 17 17 17 17 16 16
23 23 22 22 22 22 22 21 21 20 20 19 19 19 19 18 18 18 18 18 18 17 17 17 17 17 17 17 17 17 17 17 17 17 17 17 17 17 17 17 17 16 16
23 23 23 22 22 22 22 21 21 20 20 19 19 19 18 18 18 18 18 17 17 17 17 17 17 17 17 16 16 16 17 17 17 17 17 17 17 17 17 17 17 16 16
23 22 22 22 22 22 21 21 21 20 20 19 19 19 18 18 18 18 17 17 17 17 17 17 17 16 16 16 16 16 16 16 16 16 16 16 16 16 16 16 16 16 16
23 22 22 22 22 22 21 21 21 20 20 19 19 19 18 18 18 17 17 17 17 17 17 16 16 16 16 16 16 16 16 16 16 16 16 16 16 16 16 16 16 16 16
22 22 22 22 22 21 21 21 21 20 20 19 19 19 18 18 18 17 17 17 16 16 16 16 16 16 16 16 16 16 16 16 16 16 16 16 16 16 16 16 16 16 16
22 22 22 22 22 21 21 21 20 20 20 19 19 18 18 18 17 17 17 16 16 16 16 16 16 16 16 16 16 15 16 16 16 16 16 16 15 16 15 15 15 15 15
21 21 21 21 21 21 20 20 20 20 19 19 19 18 18 17 17 17 17 16 16 16 16 16 16 16 15 15 15 15 15 15 15 15 15 15 15 15 15 15 15 15 15
20 20 20 20 21 20 20 20 20 19 19 19 18 18 18 17 17 17 17 16 16 16 16 15 15 15 15 15 15 15 15 15 15 15 15 15 15 15 14 14 14 14 14
20 20 20 20 20 20 19 19 19 19 19 19 18 18 17 17 17 17 16 16 16 16 15 15 15 15 15 15 15 15 15 15 15 14 14 14 14 14 14 14 14 14 14
19 19 19 19 19 19 19 19 19 19 18 18 18 17 17 17 17 16 16 16 16 15 15 15 15 15 15 15 15 15 14 14 14 14 14 14 14 14 13 13 13 13 13
20 19 20 19 19 19 19 19 19 18 18 18 17 17 17 16 16 16 16 16 15 15 15 15 15 14 14 14 14 14 14 14 14 14 14 13 13 13 13 13 13 13 13
20 20 20 19 19 19 18 18 18 18 18 18 17 17 16 16 16 16 16 15 15 15 15 14 14 14 14 14 14 14 14 14 13 13 13 13 13 13 13 13 13 13 12
20 19 19 19 19 18 18 18 18 17 17 17 17 16 16 16 16 16 15 15 15 14 14 14 14 14 14 14 13 13 13 13 13 13 13 13 12 12 12 12 12 12 12
19 19 18 18 18 18 17 17 17 17 17 17 16 16 16 16 15 15 15 15 14 14 14 14 13 13 13 13 13 13 13 13 13 12 12 12 12 12 12 12 12 12 11
18 18 18 17 17 17 17 17 16 16 16 16 16 15 15 15 15 15 14 14 14 14 13 13 13 13 13 13 13 12 12 12 12 12 12 12 12 12 11 11 11 11 11
18 17 17 17 17 16 16 16 16 16 16 15 15 15 15 14 14 14 14 14 14 13 13 13 13 13 12 12 12 12 12 12 12 12 11 11 11 11 11 11 11 11 11
17 17 17 16 16 16 16 16 15 15 15 15 15 14 14 14 14 14 14 13 13 13 13 13 12 12 12 12 12 12 11 11 11 11 11 11 11 11 11 11 10 10 10
16 16 16 16 16 15 15 15 15 15 14 14 14 14 14 14 14 13 13 13 13 13 13 13 12 12 12 12 11 11 11 11 11 11 11 11 11 11 10 10 10 10 10
16 16 15 15 15 15 15 14 14 14 14 14 13 13 13 13 13 13 13 13 13 12 12 12 12 12 12 11 11 11 11 11 11 10 10 10 10 10 10 10 10 10 10
Wind_Speed
8 8 9 9 8 7 7 6 6 5 4 3 3 3 3 3 3 3 4 5 4 4 4 3 3 4 4 3 4 3 4 3 3 4 4 4 3 3 2 2 2 2 4
7 8 8 8 9 8 7 6 6 5 4 3 3 3 3 2 2 2 4 5 5 5 4 4 3 3 4 4 4 4 3 2 2 2 3 3 3 3 2 2 3 2 2
11 10 9 8 9 8 8 7 6 5 4 4 4 4 4 3 3 3 3 3 5 5 4 4 4 4 3 3 3 3 3 2 1 2 3 3 1 1 2 2 2 1 2
10 11 11 10 9 8 7 7 6 5 5 5 5 6 5 3 2 1 2 3 4 4 5 4 4 4 3 3 2 2 2 2 1 1 2 2 3 2 0 2 1 0 1
11 11 12 11 9 9 8 7 6 5 5 5 6 6 4 3 2 3 3 3 2 3 4 4 3 3 3 2 2 2 2 2 1 1 1 2 2 2 2 0 1 1 1
9 9 9 9 8 8 8 7 6 5 5 5 5 6 5 4 4 3 3 2 1 2 2 3 3 2 2 2 1 1 2 1 1 1 1 2 2 1 2 1 1 0 1
10 9 9 10 10 10 9 8 7 5 5 5 4 5 5 5 5 4 3 2 2 1 1 2 1 1 1 1 1 2 2 1 1 1 1 1 1 2 2 2 1 0 1
10 11 11 11 11 11 10 9 8 6 5 5 4 4 4 4 3 3 3 3 2 2 1 1 1 1 1 1 1 1 1 1 1 1 1 1 0 1 2 2 3 1 1
8 9 10 10 11 11 10 10 9 7 6 5 4 4 4 4 4 3 3 2 2 2 2 2 2 1 1 1 2 1 1 1 1 1 1 1 1 1 1 2 3 3 2
7 7 8 9 9 10 9 9 9 8 6 5 5 5 4 4 4 4 3 3 2 2 2 2 2 1 1 1 1 1 1 2 1 1 2 1 1 1 1 1 1 2 3
8 8 7 8 8 8 9 9 8 7 6 6 5 4 4 3 4 3 3 3 2 2 2 2 2 2 1 1 1 1 1 2 2 2 2 1 1 2 1 1 1 1 2
6 7 7 7 8 8 8 8 8 7 7 6 5 4 4 4 4 3 2 3 3 2 2 2 2 2 1 1 1 1 1 1 1 1 2 2 2 2 1 1 1 1 1
6 6 7 7 7 7 7 7 7 7 6 6 5 4 4 4 4 3 3 3 3 2 2 3 2 1 1 1 0 0 0 0 0 1 1 1 2 2 1 2 2 1 2
7 7 6 6 6 7 6 6 6 6 6 6 5 4 3 3 3 3 3 3 3 3 3 2 2 1 1 1 1 1 0 0 0 0 0 1 1 1 1 1 1 2 2
6 6 6 6 5 6 5 5 5 5 6 6 5 4 4 3 3 3 2 2 3 3 3 3 1 1 1 1 1 1 0 1 0 1 1 0 1 2 2 2 2 2 2
5 5 5 6 6 5 4 5 5 5 5 6 4 3 4 3 3 3 2 2 2 2 3 2 2 1 1 1 2 2 1 1 1 1 1 1 1 1 1 1 2 3 3
6 5 5 5 5 5 6 6 5 5 5 5 4 3 3 4 3 3 3 3 2 2 2 1 1 1 0 2 1 2 1 1 1 1 0 1 1 1 1 1 2 0 1
6 5 5 5 4 4 4 4 4 5 5 4 4 3 3 3 2 2 2 2 2 3 2 2 1 0 1 2 2 2 2 1 0 1 1 1 0 1 1 1 1 2 2
7 6 6 5 5 4 4 5 4 3 4 4 3 3 4 3 3 2 2 2 2 2 2 2 2 1 1 2 1 2 1 1 1 1 0 1 1 1 2 2 1 2 4
6 6 6 5 4 3 4 5 4 3 2 3 4 3 3 3 3 3 2 2 2 2 2 1 1 1 1 1 1 3 2 1 0 1 1 0 0 1 1 1 0 2 3
6 6 6 5 3 3 5 5 4 2 2 1 2 1 2 3 3 2 1 1 0 1 1 1 1 1 2 1 0 2 2 2 1 0 1 2 2 2 1 1 2 4 3
6 7 6 4 3 4 6 4 2 1 1 2 2 1 1 2 2 2 1 1 1 0 1 0 1 1 2 1 0 1 1 2 2 1 2 2 3 4 4 2 2 2 1
5 5 5 4 3 3 5 4 1 1 2 3 2 2 3 2 2 2 2 1 1 1 0 0 0 1 2 2 1 1 1 1 1 1 2 3 3 4 3 2 2 2 0
4 4 6 5 4 3 4 4 3 3 3 3 3 2 2 2 1 2 1 1 1 2 1 1 1 1 1 1 1 1 1 2 2 2 3 4 4 2 2 2 2 1 1
4 5 5 5 4 3 3 3 3 4 4 3 2 2 1 1 1 1 0 1 2 3 3 3 3 3 2 3 2 2 0 0 0 1 2 2 2 3 3 2 2 2 2
5 4 4 3 3 3 2 2 3 4 4 2 1 1 1 1 1 1 1 3 2 1 0 2 3 2 3 2 1 1 1 1 1 2 0 1 1 1 1 2 2 2 2
Wind_Direction
165 159 155 148 141 135 131 128 120 119 114 107 103 98 93 83 69 68 73 83 85 87 83 78 63 64 70 65 66 71 68 60 64 77 63 46 53 83 100 109 127 149 160
158 158 155 152 148 145 139 130 129 128 124 129 128 122 118 104 95 61 55 68 76 80 84 73 67 65 72 59 57 72 69 65 62 90 86 55 26 28 68 95 118 128 142
166 167 163 164 155 151 149 145 137 131 126 118 106 97 79 62 54 52 55 57 73 73 74 75 79 73 76 72 58 66 86 86 27 68 112 116 153 351 11 52 90 117 133
171 173 170 166 163 155 146 136 134 127 122 118 118 121 120 114 121 111 86 67 65 71 79 80 78 75 75 81 76 72 78 105 88 16 54 125 148 138 57 354 6 29 136
175 175 172 165 159 153 145 138 131 125 123 124 130 126 122 125 113 97 90 77 59 65 75 82 82 77 73 70 59 56 63 90 118 105 77 70 58 87 133 182 341 353 315
161 163 161 153 152 148 142 140 134 129 126 126 129 131 132 127 117 113 113 100 74 62 67 89 88 92 85 75 66 67 73 76 81 79 104 123 130 146 137 164 198 266 303
159 156 159 163 158 152 150 146 140 134 136 131 132 138 141 138 141 147 144 131 110 89 86 99 100 93 79 82 68 68 49 49 70 82 94 125 163 165 153 145 162 205 298
167 168 170 170 163 159 156 153 150 148 148 143 141 138 137 139 141 145 146 149 154 155 137 116 110 89 79 68 55 57 29 43 54 52 80 96 54 135 148 154 147 126 339
166 164 167 165 163 163 162 159 156 152 155 153 140 131 135 136 141 142 141 143 141 126 101 106 109 100 88 75 80 59 13 39 34 13 39 54 22 81 132 142 152 151 168
160 158 159 161 164 163 159 155 156 159 159 153 150 146 141 137 134 133 135 139 138 115 105 98 101 95 86 85 80 48 18 56 19 35 57 32 4 38 50 110 118 143 161
164 163 159 159 155 153 155 155 157 151 151 154 149 143 145 142 134 137 146 151 141 132 138 132 114 102 88 79 74 46 45 53 24 23 58 28 33 44 24 65 87 95 130
158 156 149 146 147 151 159 162 163 161 164 159 149 150 149 144 145 153 159 152 149 157 151 127 109 109 98 78 80 50 33 63 45 13 39 8 29 44 38 63 64 72 111
140 140 138 144 150 149 153 159 161 162 157 148 147 150 154 156 165 171 164 154 147 146 137 125 128 129 124 102 91 138 28 48 97 61 69 25 63 51 52 67 72 70 67
136 141 146 147 147 146 151 158 156 149 145 142 147 154 167 172 180 174 158 150 149 147 144 141 147 155 146 116 80 100 54 4 8 72 134 120 125 141 123 96 92 93 74
124 138 145 145 139 138 143 148 144 142 145 144 155 174 177 162 153 155 154 146 150 157 152 143 156 179 162 162 139 137 111 93 61 14 341 171 130 118 129 133 144 127 118
130 128 126 132 135 137 138 138 141 148 146 149 163 171 164 157 157 160 151 141 142 142 140 148 168 189 205 77 103 128 150 148 135 322 327 351 25 34 58 87 142 157 163
130 133 136 137 144 150 148 150 156 146 140 148 158 166 171 172 181 173 153 163 162 145 146 158 145 168 353 52 58 88 117 152 183 210 281 330 10 35 45 40 39 7 215
144 145 139 134 137 140 142 145 145 146 145 154 166 171 169 175 172 157 170 185 170 164 173 173 170 144 344 30 50 75 76 94 305 218 187 174 326 44 92 65 7 324 304
153 150 141 140 134 141 137 130 130 147 154 164 176 182 177 175 168 171 196 186 171 180 190 182 174 178 299 348 41 85 101 79 14 355 139 154 153 33 76 89 28 327 313
124 129 128 120 120 140 132 121 129 131 171 188 189 182 175 172 186 200 198 178 168 189 185 175 180 193 269 309 75 103 122 108 18 354 357 10 35 22 81 121 170 289 290
116 123 118 121 140 133 113 114 131 160 204 184 165 169 172 180 182 172 140 133 132 202 190 185 221 237 242 260 148 125 129 152 156 269 304 300 339 341 321 244 225 246 259
105 113 120 130 132 121 119 118 130 173 124 101 94 95 118 142 124 121 108 112 136 178 239 128 343 314 305 314 319 123 129 136 157 236 263 276 316 324 321 303 288 297 328
119 123 127 127 115 117 124 131 148 125 112 94 95 109 97 81 106 130 141 143 145 141 182 171 251 308 323 333 354 70 91 85 134 253 283 308 321 327 322 323 339 356 7
124 132 130 127 124 121 128 132 133 125 114 106 103 106 111 95 70 79 115 154 180 178 182 184 219 270 310 322 341 357 2 8 6 344 346 356 359 359 349 343 343 341 265
110 119 132 133 130 116 114 123 130 130 126 123 117 111 118 130 95 66 100 188 226 207 202 208 199 199 248 262 224 175 179 226 327 25 12 10 8 4 355 343 334 333 332
115 112 114 119 119 109 101 122 140 130 130 127 132 156 167 174 145 124 24 14 2 348 185 187 187 212 224 234 240 239 199 150 119 105 50 310 311 305 308 317 321 313 302
Height
1503 1504 1505 1506 1507 1508 1509 1510 1510 1511 1511 1511 1511 1511 1511 1512 1512 1512 1512 1511 1511 1510 1509 1509 1508 1508 1507 1506 1505 1505 1504 1504 1504 1504 1506 1507 1509 1509 1510 1511 1513 1514 1515
1502 1504 1505 1506 1507 1508 1509 1510 1511 1511 1512 1512 1512 1512 1513 1513 1513 1513 1513 1512 1511 1511 1510 1510 1509 1509 1508 1507 1507 1506 1506 1506 1506 1506 1506 1508 1511 1510 1511 1512 1513 1514 1515
1500 1503 1505 1506 1507 1508 1509 1510 1511 1511 1512 1513 1513 1513 1513 1513 1513 1513 1513 1513 1512 1512 1511 1511 1510 1510 1509 1509 1508 1508 1508 1508 1508 1508 1509 1509 1510 1511 1512 1513 1514 1514 1515
1500 1501 1502 1504 1506 1508 1509 1510 1511 1512 1512 1513 1513 1513 1513 1513 1513 1514 1514 1513 1513 1513 1512 1512 1511 1511 1510 1510 1510 1509 1509 1509 1509 1510 1510 1511 1511 1511 1513 1514 1514 1514 1515
1498 1499 1501 1503 1505 1507 1509 1510 1511 1512 1512 1513 1513 1513 1513 1514 1514 1514 1514 1514 1514 1513 1513 1513 1512 1512 1511 1511 1510 1510 1510 1510 1510 1510 1511 1511 1512 1512 1512 1513 1514 1514 1515
1496 1498 1500 1502 1504 1507 1508 1509 1510 1511 1512 1512 1513 1513 1513 1514 1514 1514 1514 1514 1514 1514 1513 1513 1512 1512 1512 1511 1511 1511 1511 1510 1510 1510 1511 1511 1511 1511 1511 1512 1512 1513 1514
1495 1497 1500 1502 1503 1505 1507 1509 1510 1510 1512 1512 1513 1513 1514 1514 1514 1514 1514 1514 1513 1513 1513 1513 1512 1512 1512 1512 1511 1511 1510 1510 1510 1510 1510 1511 1511 1511 1511 1511 1511 1511 1512
1493 1495 1497 1499 1502 1504 1506 1507 1509 1510 1511 1512 1513 1513 1514 1514 1514 1514 1514 1514 1513 1513 1513 1512 1512 1512 1512 1511 1511 1510 1510 1510 1510 1510 1510 1510 1510 1510 1510 1510 1510 1510 1511
1490 1493 1496 1498 1501 1503 1504 1506 1508 1510 1511 1512 1512 1513 1513 1514 1514 1514 1514 1513 1513 1513 1512 1512 1511 1511 1511 1511 1510 1510 1509 1509 1509 1509 1509 1509 1509 1509 1509 1509 1509 1510 1509
1489 1492 1494 1497 1500 1502 1504 1506 1507 1509 1510 1511 1512 1512 1513 1513 1513 1513 1513 1513 1512 1512 1511 1511 1510 1510 1510 1510 1509 1509 1508 1508 1508 1508 1508 1508 1508 1508 1508 1508 1508 1508 1508
1488 1491 1493 1496 1499 1502 1503 1505 1506 1508 1509 1510 1511 1512 1512 1513 1513 1513 1513 1513 1512 1511 1511 1510 1510 1509 1509 1508 1508 1507 1507 1506 1506 1506 1506 1506 1506 1506 1506 1506 1506 1506 1506
1488 1490 1493 1495 1498 1500 1502 1504 1505 1507 1508 1509 1510 1511 1512 1512 1512 1512 1512 1512 1511 1511 1510 1509 1509 1508 1508 1507 1507 1506 1505 1505 1505 1505 1505 1505 1505 1504 1504 1504 1504 1504 1504
1489 1491 1493 1495 1497 1499 1501 1502 1504 1505 1507 1508 1509 1510 1510 1511 1511 1511 1511 1511 1510 1510 1509 1508 1508 1507 1507 1506 1505 1505 1504 1504 1503 1503 1503 1503 1503 1502 1502 1502 1502 1502 1502
1489 1490 1492 1494 1496 1497 1499 1501 1502 1504 1505 1507 1508 1509 1509 1509 1509 1509 1509 1509 1509 1509 1508 1508 1507 1506 1505 1505 1504 1504 1503 1502 1502 1502 1501 1501 1501 1501 1500 1500 1500 1500 1500
1489 1490 1492 1493 1495 1497 1498 1500 1501 1503 1505 1506 1506 1507 1507 1508 1508 1508 1508 1508 1508 1507 1507 1506 1505 1505 1504 1503 1503 1502 1502 1501 1501 1500 1500 1499 1499 1499 1499 1499 1498 1498 1498
1491 1492 1492 1493 1494 1496 1498 1499 1500 1502 1503 1504 1505 1506 1506 1506 1506 1506 1506 1507 1506 1506 1505 1505 1504 1503 1502 1502 1501 1500 1500 1499 1499 1498 1498 1497 1497 1497 1497 1496 1496 1496 1496
1490 1491 1491 1493 1494 1495 1496 1498 1499 1500 1501 1502 1503 1504 1505 1505 1505 1505 1505 1505 1504 1504 1504 1503 1503 1502 1501 1500 1500 1499 1498 1497 1497 1496 1496 1495 1495 1495 1495 1494 1494 1494 1494
1488 1489 1491 1492 1493 1494 1495 1497 1498 1499 1500 1501 1502 1502 1503 1503 1503 1503 1503 1503 1503 1502 1502 1502 1501 1501 1500 1499 1498 1497 1496 1495 1495 1494 1494 1493 1493 1492 1492 1491 1491 1491 1491
1486 1487 1489 1491 1492 1493 1494 1496 1497 1497 1498 1499 1500 1500 1501 1501 1501 1501 1501 1501 1500 1500 1500 1499 1499 1499 1498 1497 1496 1495 1494 1493 1493 1492 1492 1491 1490 1490 1489 1488 1488 1488 1488
1486 1487 1489 1491 1492 1492 1493 1493 1494 1495 1496 1497 1498 1498 1499 1500 1499 1499 1499 1499 1499 1498 1498 1497 1497 1496 1496 1495 1494 1493 1492 1491 1490 1490 1489 1489 1488 1487 1486 1486 1485 1485 1485
1486 1487 1488 1490 1491 1491 1492 1492 1493 1494 1495 1496 1496 1497 1498 1498 1498 1498 1498 1497 1497 1496 1495 1495 1495 1494 1493 1492 1492 1491 1490 1489 1488 1487 1487 1486 1486 1485 1484 1483 1483 1482 1482
1485 1486 1487 1488 1489 1490 1491 1491 1492 1493 1494 1495 1495 1495 1496 1497 1496 1496 1496 1496 1495 1494 1492 1492 1493 1492 1491 1491 1490 1489 1488 1487 1486 1485 1484 1484 1483 1483 1482 1481 1480 1480 1480
1484 1486 1487 1488 1489 1489 1490 1490 1492 1493 1493 1493 1494 1493 1494 1494 1494 1493 1493 1493 1492 1492 1491 1490 1490 1490 1489 1488 1488 1487 1486 1485 1484 1483 1482 1482 1481 1480 1479 1479 1478 1478 1477
1484 1485 1486 1487 1488 1489 1490 1490 1490 1491 1492 1492 1492 1492 1492 1492 1492 1492 1492 1492 1491 1490 1489 1488 1488 1488 1487 1487 1486 1485 1484 1483 1482 1481 1481 1480 1479 1478 1477 1476 1476 1475 1475
1484 1485 1486 1486 1487 1488 1489 1489 1490 1490 1491 1491 1491 1491 1491 1491 1491 1491 1490 1490 1489 1489 1488 1487 1486 1485 1485 1485 1485 1483 1482 1481 1480 1479 1479 1478 1477 1476 1475 1474 1474 1473 1472
1485 1485 1485 1486 1487 1487 1488 1488 1488 1489 1489 1489 1489 1489 1489 1489 1489 1489 1489 1488 1488 1487 1486 1486 1485 1483 1484 1483 1482 1481 1481 1480 1479 1478 1477 1476 1475 1474 1473 1473 1472 1471 1470